Other Surface Observations
Issued by NWS

Home | Current Version | Previous Version | Text Only | Print | Product List | Glossary On
Versions: 1 2 3 4 5 6 7 8 9 10 11 12 13 14 15 16 17 18 19 20 21 22 23 24 25 26 27 28 29 30 31 32 33 34 35 36 37 38 39 40 41 42 43 44 45 46 47 48 49 50
000
SXUS52 KTAE 010305
OSOTAE
OSOTAE
North Florida/South Alabama/Southwest Georgia Weather Roundup
National Weather Service Tallahassee Florida
1100 PM EDT TUE JUN 30 2015

Note: "fair" indicates few or no clouds below 12,000 feet with no
significant weather and/or obstructions to visibility.

!FLZ017-115-028-034-025-010400
...North Florida...

CITY           SKY/WX    TMP DP  RH WIND       PRES   REMARKS
TALLAHASSEE    MOCLDY    71  68  90 NW5       30.08R
APALACHICOLA   PTCLDY    78  70  76 CALM      30.07R
PERRY            N/A     69  69 100 CALM      30.09R
CROSS CITY       N/A     73  68  84 CALM      30.09R
JACKSONVILLE   MOCLDY    74  65  73 SW10      30.05R
$$

!FLZ112-006-005-002-011-010400
...Florida Panhandle...

CITY           SKY/WX    TMP DP  RH WIND       PRES   REMARKS
MARIANNA       PTCLDY    69  69 100 S3        30.07S
BONIFAY        FAIR      69  68  96 CALM      30.08F
PANAMA CITY NW FAIR      71  69  93 CALM      30.06S
TYNDALL AFB    NOT AVBL
TYND DRONE APT FAIR      72  71  97 CALM      30.07S
DE FUNIAK SPR  FAIR      70  70  98 S5        30.08R
EGLIN AFB      PTCLDY    76  71  85 W2        30.06F
DESTIN         PTCLDY    80  70  71 SW3       30.07S
HURLBURT       PTCLDY    79  71  77 S3        30.06R
CRESTVIEW      PTCLDY    73  70  90 S3        30.08S
PENSACOLA      PTCLDY    78  70  76 SW7       30.07R
$$

!ALZ063-066-010400
...South Alabama...

CITY           SKY/WX    TMP DP  RH WIND       PRES   REMARKS
DOTHAN         CLEAR     69  67  93 SW6       30.11R
OZARK CAIRNS   CLEAR     69  68  96 SW3       30.07R
FT RUCKER HELI CLEAR     69  67  93 CALM      30.07R
RUCKER HELI 3  FAIR      70  67  89 S3        30.09R
RUCKER HELI 2  FAIR      68  68 100 CALM      30.07R
FLORALA APT    CLEAR     72  69  90 SW3       30.09R
ANDALUSIA      CLEAR     75  69  81 CALM      30.07R
TROY           CLEAR     71  67  87 CALM      30.08R
EUFALA         FAIR      73  65  75 SW5       30.06R
MOBILE         CLOUDY    76  71  85 W6        30.10R
$$

!GAZ120>161-010400
...Southwest and South Central Georgia...

CITY           SKY/WX    TMP DP  RH WIND       PRES   REMARKS
THOMASVILLE    FAIR      70  68  94 SW6       30.09R
BAINBRIDGE     CLOUDY    72  70  94 SW3       30.08S
MOODY AFB      MOCLDY    70  68  92 W8        30.05R
VALDOSTA       PTCLDY    69  68  96 VRB3      30.07R
MOULTRIE       MOCLDY    72  68  88 CALM      30.08R
BLAKELY        PTCLDY    72  72 100 CALM      30.08R
ALBANY         CLOUDY    72  68  87 SW5       30.07S
TIFTON         FAIR      73  69  87 W5        30.05F
FITZGERALD     FAIR      74  73  95 W5        30.07S
CORDELE        FAIR      76  73  90 SW7       30.05S
AMERICUS       FAIR      72  72 100 SW6       30.06R
HOMERVILLE     FAIR      73  72  94 W6        30.06R
$$

!GMZ750-755-770-775-010400
...Coastal and Buoy Obs...

STATION/POSITION TIME  TEMP    WIND        PRES    VSBY  WAVE
                       AIR SEA DIR/SP/G                  HT/PER
                 (UTC) (F)     (DEG/KT/KT) (MB)    (MI)  (FT/S)
KEATON BEACH     0300   80     240/  7/  8 1018.9R
CEDAR KEY        0200   81     350/  3/  5 1019.4S
C TOWER          0300   80     210/  7/  7 1018.5R
APALACHICOLA BUO 0250   84 85  220/  8/ 10 1019.0R         2/ 5
PANAMA CITY BUOY 0150   82 83  230/  8/ 10 1018.4          3/ 5
MOBILE BUOY      0250   84 85  210/ 10/ 12 1019.0F         1/ 9
ORANGE BCH AL BU 0250   83 84  200/ 12/ 14 1017.7S         1/ 4
$$



USA.gov is the U.S. government's official web portal to all federal, state and local government web resources and services.